Flag for Canada Weather past 2 weeks in Medicine Hat, Alberta, Canada

Now
64 °F

Passing clouds.


Feels Like: 64 °F
Forecast: 52 / 74 °F
Wind: 17 mph from West

Location: Medicine Hat

Current Time: Sep 19, 2014 at 12:50:59 AM

Latest Report: Sep 19, 2014 at 12:00 AM


Visibility: 9 mi

Pressure: 29.58 "Hg

Humidity: 52%

Dew point: 46 °F

Location of Medicine HatLocation

Historic Weather in Medicine Hat — Graph

°F

Medicine Hat temperature yesterday

Maximum temperature yesterday: 79 °F (at 5:00 PM)
Minimum temperature yesterday: 57 °F (at 5:00 AM)
Average temperature yesterday: 67 °F

Past Weeks' High & Low Weather Summary

 TemperatureHumidityPressure
High82 °F (Sep 7, 3:00 PM)100% (Sep 4, 4:00 AM)30.65 "Hg (Sep 4, 4:00 AM)
Low34 °F (Sep 9, 12:57 AM)25% (Sep 15, 2:00 PM)29.49 "Hg (Sep 18, 6:00 PM)
Average53 °F70%30.08 "Hg
* Reported Sep 3 11:00 PM — Sep 18 11:00 PM, Medicine Hat, Weather by CustomWeather, © 2014

Note: Actual official high and low records may vary slightly from our data, if they occured in-between our weather recording intervals... More about our weather records

Advertising

Medicine Hat weather history for previous 24 hours

 ConditionsComfort  
Time TempWeatherWind HumidityBarometerVisibility
11:00 PM
Sep 18
66 °FPassing clouds.16 mph49%29.57 "Hg9 mi
10:00 PM70 °FPassing clouds.21 mph40%29.56 "Hg9 mi
9:00 PM72 °FPassing clouds.20 mph36%29.55 "Hg15 mi
8:00 PM73 °FMostly cloudy.15 mph33%29.52 "Hg15 mi
7:00 PM72 °FMostly cloudy.8 mph50%29.51 "Hg5 mi
6:00 PM75 °FPartly sunny.7 mph47%29.49 "Hg2 mi
5:00 PM79 °FHigh level clouds.7 mph42%29.49 "Hg2 mi
4:00 PM77 °FHigh level clouds.12 mph42%29.51 "Hg2 mi
3:00 PM75 °FHigh level clouds.13 mph44%29.53 "Hg3 mi
2:00 PM72 °FHigh level clouds.9 mph53%29.54 "Hg15 mi
1:00 PM70 °FHigh level clouds.6 mph57%29.56 "Hg30 mi
12:00 PM70 °FHigh level clouds.9 mph57%29.57 "Hg30 mi
11:00 AM70 °FPartly sunny.8 mph60%29.58 "Hg30 mi
10:00 AM66 °FPartly sunny.8 mph64%29.58 "Hg30 mi
9:00 AM63 °FPartly sunny.12 mph68%29.58 "Hg30 mi
8:00 AM57 °FPassing clouds.10 mph82%29.57 "Hg30 mi
7:00 AM57 °FPassing clouds.5 mph82%29.57 "Hg30 mi
6:00 AM59 °FClear.8 mph72%29.57 "Hg9 mi
5:00 AM57 °FPassing clouds.6 mph82%29.57 "Hg9 mi
4:00 AM59 °FClear.8 mph77%29.57 "Hg9 mi
3:00 AM59 °FPassing clouds.7 mph77%29.59 "Hg9 mi
2:00 AM63 °FPassing clouds.12 mph68%29.60 "Hg9 mi
1:00 AM61 °FClear.10 mph72%29.62 "Hg9 mi
12:00 AM64 °FClear.10 mph64%29.62 "Hg9 mi
Weather by CustomWeather, © 2014

See weather overviewHow to use our weather pages